This is the latest recevied weather packets stored in our database for station/object WA6ODQ-13. If no packets are shown the sender has not sent any weather packets the latest 10 day(s).
| Time | Temp. | Humidity | Pressure | Rain* | Wind** | Luminosity | Snow |
|---|---|---|---|---|---|---|---|
| 1778036916 | 16.11° C | 78% | 1014 hPa | 0 mm | - | 1 W/m² | - |
| 1778036615 | 16.11° C | 78% | 1014.2 hPa | 0 mm | - | 2 W/m² | - |
| 1778036311 | 16.11° C | 78% | 1013.9 hPa | 0 mm | - | 3 W/m² | - |
| 1778036007 | 16.11° C | 78% | 1013.8 hPa | 0 mm | - | 4 W/m² | - |
| 1778035705 | 16.11° C | 78% | 1014 hPa | 0 mm | - | 6 W/m² | - |
| 1778035401 | 16.67° C | 79% | 1013.6 hPa | 0 mm | - | 9 W/m² | - |
| 1778035097 | 16.67° C | 78% | 1013.8 hPa | 0 mm | - | 11 W/m² | - |
| 1778034795 | 16.67° C | 78% | 1013.9 hPa | 0 mm | - | 14 W/m² | - |
| 1778034491 | 16.67° C | 78% | 1013.7 hPa | 0 mm | - | 18 W/m² | - |
| 1778034189 | 16.67° C | 78% | 1013.7 hPa | 0 mm | - | 26 W/m² | - |
| 1778033887 | 16.67° C | 78% | 1013.4 hPa | 0 mm | - | 30 W/m² | - |
| 1778033583 | 16.67° C | 78% | 1013.3 hPa | 0 mm | - | 37 W/m² | - |
| 1778033280 | 16.67° C | 77% | 1013.3 hPa | 0 mm | - | 45 W/m² | - |
| 1778032978 | 17.22° C | 77% | 1013.4 hPa | 0 mm | - | 46 W/m² | - |
| 1778032676 | 17.22° C | 76% | 1013.6 hPa | 0 mm | - | 53 W/m² | - |
| 1778032373 | 17.22° C | 76% | 1013.7 hPa | 0 mm | - | 52 W/m² | - |
| 1778032069 | 17.22° C | 76% | 1013.4 hPa | 0 mm | - | 57 W/m² | - |
| 1778031766 | 17.22° C | 76% | 1013.5 hPa | 0 mm | - | 63 W/m² | - |
| 1778031463 | 17.78° C | 76% | 1013.4 hPa | 0 mm | - | 63 W/m² | - |
| 1778031160 | 17.78° C | 76% | 1013.4 hPa | 0 mm | - | 66 W/m² | - |
| 1778030856 | 17.78° C | 75% | 1013.4 hPa | 0 mm | - | 69 W/m² | - |
| 1778030554 | 17.78° C | 74% | 1013.4 hPa | 0 mm | - | 69 W/m² | - |
| 1778030251 | 17.78° C | 74% | 1013.3 hPa | 0 mm | - | 83 W/m² | - |
| 1778029947 | 18.33° C | 74% | 1013.3 hPa | 0 mm | - | 94 W/m² | - |
| 1778029646 | 18.33° C | 74% | 1013.1 hPa | 0 mm | - | 116 W/m² | - |
* Rain latest hour (hover to see other rain measurements)
** Current wind speed in m/s (hover to see current wind gust speed)